Погода в Горушке

Россия / Псковская область     57°31′19″N   29°33′59″E
темп.,
°C
ветер,
м/с
пор.,
м/с
влажн.,
%
обл.,
%
осадки,
мм/ч
давл.,
гПа
погр.,
м
28 января, чт
чт2800:00−2юз129592 0.1 100342
03:00−4ююз129775 0.1 100321
06:00−4ююз119891 0.1 100421
09:00−3ю119894 0.3 100421
12:00−2ю119289 0.1 1004175
15:00−1юв018894 0.1 1003325
18:00−2вюв1194100 0.1 100257
21:00−2юв1295100 0.1 1001134
29 января, пт
пт2900:00−3в1197100 0.0 99933
03:00−3св2398100 0.1 998142
06:00−3св2497100 0.5 994244
09:00−3ссв2596100 1.7 991289
12:00−3ссв3694100 1.1 989426
15:00−2св2494100 2.1 987299
18:00−2вюв129899 0.3 98693
21:00−3юв389699 0.9 986400
30 января, сб
сб3000:00−4вюв259898 0.1 986151
03:00−4ю129698 0.3 98688
06:00−5зюз259695 0.2 985240
09:00−5зюз379695 0.3 985289
12:00−4юз378992 0.1 986613
15:00−3юз479296 0.5 987633
18:00−4ююз4994100 0.4 987610
21:00−4ююз41192100 0.6 988586
31 января, вс
вс3100:00−5ююз4109399 0.2 988505
03:00−5ююз399498 0.3 988419
06:00−6юз399496 0.2 987523
09:00−6зюз379597 0.4 988359
12:00−6зюз369099 0.1 988437
15:00−5зюз488999 0.1 989578
18:00−5зюз399499 0.1 990488
21:00−5зюз4109599 0.8 992682
1 февраля, пн
пн100:00−5зюз5119399 0.7 994680
03:00−6зюз5119398 1.0 996617
06:00−6зюз4119399 0.3 997542
09:00−7юз4109497 0.3 999355
12:00−4юз499089 0.1 1001601
15:00−3ююз478593 0.2 1001714
18:00−6ю3795100 0.1 1002307
21:00−6ююз4892100 0.1 1002513